Location: M?digepalle
(16.1753°N, 80.3496°E)
Time: 09:12:13
(UTC+00:00)

IRS-1C Rocket - Pass Details

Date: 29 October 2020
Orbit: 801 x 805 km, 99.0° (Epoch: 28 November)

Event Time Altitude Azimuth Distance (km) Brightness Sun altitude
Rises 13:17:16 0° 170° (S) 3,299 7.3 -16.7°
Reaches altitude 10° 13:19:36 10° 172° (S) 2,371 6.6 -17.3°
Maximum altitude 13:24:49 77° 257° (WSW) 826 4.2 -18.5°
Drops below altitude 10° 13:30:05 10° 343° (NNW) 2,377 6.6 -19.8°
Sets 13:32:25 0° 345° (NNW) 3,309 7.4 -20.3°
